Location: Chilly-Mazarin
(48.7149°N, 2.3164°E)
Time: 15:36:38
(UTC+00:00)

Daily predictions for brighter satellites

Satellite Brightness Start Highest point End
(mag) Time Altitude Azimuth Time Altitude Azimuth Time Altitude Azimuth
Cosmos 1420 Rocket 4.2 17:13:21 10° S 17:18:26 51° ESE 17:23:31 10° NNE
CZ-4C R/B 3.9 17:14:38 10° WNW 17:19:21 26° NNW 17:24:50 10° NE
Cosmos 1140 Rocket 4.4 17:14:37 10° NNW 17:19:39 56° WSW 17:24:41 10° S
Cosmos 1954 Rocket 4.1 17:14:29 10° NNW 17:19:42 89° W 17:24:55 10° SSE
Cosmos 1703 3.7 17:17:42 10° N 17:21:24 39° ENE 17:25:06 10° SE
USA 281 4.0 17:16:20 10° S 17:22:47 59° WSW 17:29:18 10° NNW
CZ-4B R/B 1.4 17:20:42 10° NNE 17:24:00 57° E 17:27:11 10° S
Cosmos 1908 3.9 17:21:13 10° SSE 17:24:39 33° E 17:28:09 10° NNE
Cosmos 1470 3.9 17:21:10 10° SSW 17:24:54 48° WNW 17:28:42 10° N
NOSS 3-1 (A) 4.1 17:17:44 10° NW 17:25:08 80° NE 17:33:46 10° SE
AQUARIUS 4.4 17:21:42 10° S 17:26:12 76° WSW 17:30:43 10° NNW
Cosmos 1943 Rocket 2.8 17:21:22 10° SW 17:26:52 59° WNW 17:32:21 10° NNE
Cosmos 1655 Rocket 4.1 17:20:48 10° N 17:27:13 73° E 17:33:37 10° SSE
CZ-4 R/B 2.4 17:24:04 10° ESE 17:27:17 25° ENE 17:30:29 10° N
Cosmos 2227 Rocket 3.8 17:23:58 10° N 17:27:26 16° NE 17:30:53 10° ENE
Cosmos 2279 Rocket 4.1 17:21:35 10° S 17:27:52 90° W 17:34:09 10° N
CZ-2D R/B 4.0 17:24:42 10° SE 17:28:05 30° ENE 17:31:29 10° N
Okean O Rocket 2.2 17:23:48 10° S 17:28:08 63° WSW 17:32:30 10° NNW
IRS-1C Rocket 4.2 17:23:59 10° SE 17:29:05 54° ENE 17:34:13 10° N
FengYun 1-2 T 4.3 17:23:36 10° SSE 17:29:15 82° ENE 17:34:57 10° NNW
Cosmos 1371 Rocket 4.5 17:25:27 10° SSW 17:30:46 69° WNW 17:36:05 10° NNE
Cosmos 1741 Rocket 4.3 17:25:59 10° NNW 17:31:06 48° ENE 17:36:09 10° SE
SMAP 3.7 17:26:43 10° S 17:31:19 61° W 17:35:57 10° NNW
Cosmos 1758 4.2 17:27:19 10° SSW 17:31:20 55° WNW 17:35:23 10° N
USA 305 3.5 17:29:57 10° W 17:34:10 51° NNW 17:38:23 10° ENE
ERBS 2.2 17:31:31 10° SW 17:34:51 72° SE 17:38:12 10° ENE
Cosmos 2263 4.3 17:29:36 10° SSW 17:35:23 82° ESE 17:41:11 10° NNE
ATLAS 5 CENTAUR R/B 1.7 17:32:08 10° SW 17:36:13 75° NW 17:40:55 10° NE
COSMO-SKYMED 1 3.0 17:33:39 10° NNE 17:37:47 41° E 17:41:54 10° S
ATLAS 2AS CENTAUR R/B 4.4 17:33:16 10° WNW 17:39:43 26° N 17:45:54 10° NE
USA 306 3.5 17:36:00 10° W 17:40:11 49° NNW 17:44:16 11° ENE
Lacrosse 5 1.9 17:35:07 10° SW 17:40:12 85° NW 17:45:18 10° NE
NOSS 2-1 (C) 2.9 17:37:58 10° SW 17:41:18 89° SE 17:44:54 10° NE
USA 276 2.8 17:38:37 10° W 17:41:46 51° SSW 17:44:53 10° SE
Cosmos 2056 Rocket 4.0 17:36:50 10° SW 17:41:59 63° WNW 17:47:07 10° NNE
Meteor 2-10 4.4 17:37:33 10° SSW 17:42:38 66° WNW 17:47:40 10° N
H-2A R/B 3.0 17:40:37 10° ESE 17:45:12 29° ENE 17:49:50 10° N
GRACE-FO 1 4.5 17:41:48 10° N 17:45:26 77° E 17:49:01 10° S
GRACE-FO 2 4.5 17:42:11 10° N 17:45:49 78° E 17:49:24 10° S
SAR-Lupe-4 3.5 17:42:34 10° NNE 17:46:09 68° ESE 17:49:43 10° S
USA 215 3.6 17:40:04 10° E 17:46:22 54° NNE 17:52:42 10° WNW
NOSS 2-1 (D) 3.0 17:43:11 10° SW 17:46:30 81° NW 17:50:06 10° NE
ARGOS 4.2 17:43:35 10° ESE 17:47:53 25° ENE 17:52:12 10° N
Okean-O 2.9 17:44:31 10° SE 17:48:46 47° ENE 17:53:03 10° N
Cosmos 1328 3.7 17:44:54 10° N 17:48:50 62° ENE 17:52:44 10° SSE
COSMOS 2487 2.7 17:46:41 10° N 17:50:02 45° ENE 17:53:21 10° SE
Cosmos 1850 Rocket 4.0 17:45:38 10° NNW 17:50:55 71° ENE 17:56:14 10° SSE
SeaSat 1 2.9 17:47:01 10° ESE 17:51:38 42° NE 17:56:18 10° NNW
H-2A R/B 4.0 17:48:53 10° N 17:52:35 30° WNW 17:56:14 10° SW
CSL-04 Rocket 4.3 17:48:50 10° SE 17:53:51 36° ENE 17:58:52 10° N
Cosmos 1825 Rocket 3.7 17:53:40 10° N 17:58:05 55° ENE 18:02:26 10° SSE
Cosmos 1452 Rocket 3.5 17:53:39 10° SSW 17:58:52 70° ESE 18:04:08 10° NNE
Cosmos 2098 Rocket 3.9 17:56:05 10° NNW 17:59:29 39° W 18:02:23 10° SSW
Cosmos 1300 3.5 17:56:22 10° SSE 17:59:38 28° E 18:02:55 10° NNE
YAOGAN 1 2.8 17:55:50 10° SE 17:59:59 47° ENE 18:04:09 10° N
CZ-4 R/B 4.4 17:56:58 10° SSE 18:01:07 77° ENE 18:05:18 10° N
SKYMED 3 4.5 17:57:29 10° NNE 18:01:51 71° ESE 18:06:11 10° S
Cosmos 304 Rocket 3.9 17:59:08 10° SSW 18:03:56 81° WNW 18:08:44 10° NNE
SAR-Lupe-1 4.1 18:00:28 10° NNE 18:04:04 81° WNW 18:07:40 10° SSW
Cosmos 1656 Rocket 3.8 18:01:01 10° SSW 18:06:34 77° WNW 18:12:15 10° NNE
Cosmos 1400 Rocket 4.4 18:03:45 10° SE 18:12:02 - NNE 18:05:30 18° ESE
Meteor 2-21 Rocket 4.4 18:00:58 10° N 18:07:09 64° ENE 18:13:15 10° SSE
Cosmos 1726 4.3 18:04:06 10° SW 18:07:23 29° WNW 18:10:42 10° N
CZ-2C R/B 3.4 18:02:22 10° SSE 18:08:04 59° ENE 18:13:43 10° N
Cosmos 2297 Rocket 3.1 18:04:28 10° NNW 18:09:26 30° NE 18:12:08 20° E
Cosmos 2266 Rocket 4.3 18:04:05 10° NNW 18:10:14 72° W 18:16:28 10° S
Cosmos 2369 Rocket 3.3 18:04:53 10° SW 18:10:19 45° NW 18:15:49 10° NNE
Cosmos 1689 Rocket 2.0 18:08:09 10° NNE 18:11:04 81° WNW 18:13:57 10° SSW
BREEZE-M R/B 3.8 18:02:48 10° W 18:12:32 86° N 18:14:14 26° E
Cosmos 1758 Rocket 3.6 18:08:55 10° NNW 18:13:23 82° W 18:17:46 10° S
Cosmos 1726 Rocket 3.7 18:13:27 10° SSE 18:17:36 47° E 18:21:49 10° NNE
Cosmos 1818 3.7 18:13:23 10° SW 18:18:49 80° NW 18:24:19 10° NE
USA 307 3.7 18:16:18 10° WNW 18:20:23 42° N 18:22:42 22° NE
PSLV R/B 4.0 18:18:09 10° NNE 18:22:23 84° WNW 18:26:34 10° SSW
Cosmos 1953 4.4 18:20:57 10° SW 18:24:27 29° WNW 18:27:59 10° N
Helios 1A Rocket 3.4 18:20:30 10° S 18:24:37 65° WSW 18:28:44 10° NNW
USA 308 3.8 18:20:55 10° WNW 18:24:59 41° N 18:27:06 24° NE
CSL-04 Debris 4.1 18:19:51 10° SSE 18:25:11 64° ENE 18:30:36 10° N
SKYMED 2 3.9 18:21:37 10° N 18:25:56 67° WNW 18:30:14 10° SSW
Ariane Rocket 3.9 18:26:42 26° ENE 18:27:23 27° ENE 18:31:36 10° N
Cosmos 2219 3.7 18:23:07 10° NNW 18:28:32 40° NE 18:30:55 28° E
Timation 2 Rocket 4.1 18:22:46 10° NNW 18:29:13 61° NE 18:34:14 18° SE
FALCON 9 DEB 3.3 18:26:31 10° WSW 18:29:55 63° NNW 18:31:01 38° NE
USA 116 4.4 18:25:15 10° NNE 18:30:19 59° E 18:35:34 10° S
Cosmos 1606 Rocket 3.4 18:25:59 10° S 18:30:19 81° E 18:34:44 10° NNE
SL-4 R/B 1.6 18:28:25 10° WSW 18:31:59 89° NNW 18:33:10 42° ENE
Geosat 3.9 18:27:01 10° NNE 18:32:05 85° ESE 18:37:07 10° SSW
SL-08 RB Rocket 4.2 18:33:51 34° E 18:34:16 35° ENE 18:38:21 10° N
Cosmos 1340 2.9 18:38:14 10° N 18:41:40 48° ENE 18:41:40 48° ENE
Cosmos 1346 Rocket 4.4 18:39:28 10° N 18:41:13 20° NNE 18:41:13 20° NNE
Cosmos 2058 4.2 18:42:22 10° N 18:44:32 24° NNE 18:44:32 24° NNE
S3M 4.3 18:40:40 10° SSE 18:46:15 40° E 18:51:54 10° NNE
Cosmos 2058 Rocket 3.0 18:43:27 10° S 18:47:51 63° E 18:52:19 10° NNE
CRYOSAT 2 4.4 18:43:12 10° NNE 18:47:59 53° E 18:52:44 10° SSE
Cosmos 1331 Rocket 3.8 18:46:14 10° SSW 18:51:24 78° ESE 18:56:35 10° NNE
Cosmos 2228 3.6 18:47:43 10° SSW 18:51:53 57° WNW 18:56:06 10° N
Cosmos 1953 Rocket 4.0 18:50:11 10° NNW 18:54:31 60° W 18:58:51 10° S
Cosmos 292 Rocket 3.6 18:52:38 10° S 18:57:22 65° ESE 18:59:05 38° NE
MOS 1 Rocket 3.1 18:54:21 10° NNE 18:58:50 83° ESE 19:03:34 10° SSW
Cosmos 1417 Rocket 4.4 18:54:06 10° S 19:00:12 62° E 19:06:25 10° NNE
NOSS 2-2 (E) 4.4 18:55:50 10° NW 19:01:19 78° NE 19:04:16 38° SE
CZ-4 R/B 3.1 18:58:38 10° SSW 19:02:12 32° W 19:05:45 10° NNW
Aureole 3 Rocket 2.7 19:04:09 36° SSW 19:05:32 82° WNW 19:10:03 10° N
MetOp-A 4.3 19:06:21 48° ENE 19:06:21 48° ENE 19:11:25 10° N
CZ-4C R/B 4.2 19:05:08 10° NW 19:10:04 23° N 19:12:49 19° NE
ERBS 4.0 19:08:26 10° W 19:11:11 27° NNW 19:11:11 27° NNW
Cosmos 2227 Rocket 2.1 19:07:05 10° NNW 19:12:43 61° ENE 19:13:11 59° E
Cosmos 1486 Rocket 4.0 19:07:40 10° NNW 19:12:59 60° ENE 19:13:00 60° ENE
Cosmos 1110 Rocket 4.3 19:07:57 10° SSW 19:13:11 66° WNW 19:18:25 10° NNE
USA 305 3.7 19:10:39 10° WNW 19:14:39 41° N 19:14:39 41° N
Cosmos 1302 Rocket 4.0 19:11:25 10° S 19:16:03 63° SSE 19:16:03 63° SSE
NOSS 2-2 (D) 4.4 19:11:50 10° NW 19:17:15 82° NE 19:19:03 52° SE
Cosmos 1892 3.8 19:15:24 10° NNW 19:17:51 38° NNW 19:17:51 38° NNW
Cosmos 1553 Rocket 4.0 19:13:23 10° S 19:19:48 88° W 19:26:10 10° N
USA 306 3.8 19:16:41 10° WNW 19:20:24 41° N 19:20:24 41° N
ATLAS 5 CENTAUR R/B 3.8 19:18:19 10° WNW 19:21:43 21° NNW 19:24:08 15° NNE
Lacrosse 5 3.0 19:19:01 10° W 19:23:42 36° NNW 19:24:49 32° NNE
H-2A R/B 3.0 19:19:12 10° S 19:24:22 49° W 19:29:40 10° NNW
Cosmos 968 Rocket 3.5 19:19:51 10° NNW 19:24:40 66° NNE 19:24:40 66° NNE
ARGOS 3.6 19:23:47 18° S 19:27:45 60° W 19:33:09 10° NNW
SeaSat 1 3.9 19:25:37 15° S 19:29:13 35° WSW 19:33:45 10° NW
USA 215 3.2 19:27:26 51° SE 19:29:15 76° SW 19:35:49 10° WNW
Cosmos 2263 Rocket 3.9 19:26:36 10° N 19:29:39 20° NNE 19:29:39 20° NNE
CZ-2C R/B 3.8 19:26:11 10° NNE 19:29:06 32° NNE 19:29:06 32° NNE
ATLAS 2AS CENTAUR R/B 3.8 19:26:09 10° NW 19:33:03 34° NNE 19:34:19 32° NE
BREEZE-M R/B 4.0 19:29:49 10° W 19:34:31 83° N 19:35:53 61° E
Cosmos 1745 Rocket 4.2 19:36:42 10° NNW 19:42:55 70° W 19:45:39 35° SSW
IRS-1A Rocket 4.4 19:52:24 68° WSW 19:52:32 69° WSW 19:58:07 10° NNW
Cosmos 2297 Rocket 2.5 19:48:17 10° NW 19:53:52 59° WSW 19:53:58 59° WSW
Ariane Rocket 3.9 20:06:54 45° WNW 20:06:54 45° WNW 20:11:04 10° NNW
Cosmos 2219 4.2 20:07:23 10° NW 20:12:44 41° WSW 20:12:52 41° WSW
DEBRIS 4.4 19:59:37 10° WSW 20:12:15 64° SW 20:12:15 64° SW
Cosmos 1709 Rocket 4.3 20:07:19 10° NNW 20:12:56 65° NW 20:12:56 65° NW
Cosmos 2227 Rocket 4.2 20:51:51 10° NW 20:55:02 23° W 20:55:02 23° W
CZ-4C R/B 4.0 20:54:01 10° NW 20:58:00 32° N 20:58:00 32° N
ATLAS 2AS CENTAUR R/B 4.1 21:17:31 10° NW 21:21:44 36° NW 21:21:44 36° NW
